User: anonymous   Login
Location: Aiyekoto
(8.4333°N, 4.3667°E)
Time: 13:13:19
(UTC+00:00)
Language:

Transit 2A - Orbit

View from above orbital plane
View from above orbital plane
View from above satellite
View from above satellite

Ground track
Ground track

The orbit data is extracted from the following two-line orbital elements,

1    45U 60007A   20269.90033157 -.00000086 +00000-0 +58001-5 0  9993
2    45 066.6930 116.1870 0262146 243.2084 114.1986 14.33687536080238
Epoch (UTC): 25 September 2020 21:36:28
Eccentricity: 0.0262146
inclination: 66.6930°
perigee height: 592 km
apogee height: 967 km
right ascension of ascending node: 116.1870°
argument of perigee: 243.2084°
revolutions per day: 14.33687536
mean anomaly at epoch: 114.1986°
orbit number at epoch: 8023

The dashed part of the orbit path shows where the satellite is in the earth's shadow,  

DLR